LiveATC.Net - Listen to live air traffic control over the Internet!


ICAO: KINF  IATA: INF   Airport: Inverness Airport
City: Inverness   State/Province: Florida
Country: United States   Continent: North America
KINF METAR Weather: KINF 040455Z AUTO 00000KT 7SM BKN120 12/12 A3022 RMK AO2
KINF Flight Activity (FlightAware)
KINF Airport Info   (iFlightPlanner)
KINF VFR Sectional Chart   (iFlightPlanner) 
KINF IFR Low Chart   (iFlightPlanner) 

KINF CTAF
Feed Status: UP   Listeners: 0
Listen in your browser - HTML5 player (in browser, HTML5)
Click here to listen with your own player (launches your MP3 player)
Archive Access: KINF CTAF
FacilityFrequency
Inverness CTAF122.725

NOTICE

Unauthorized use prohibited. See LiveATC.net Terms of Service


Airport/ARTCC Code
Frequency Search
(e.g., 124.400, 128.75)
Site-wide search
 


Browse Feeds
Top 50 Feeds
Coverage Map
Bad Weather Areas

LiveATC FAQ
Offer LiveATC feed
Contact LiveATC.net
Press Inquiries

LiveATC on iPhone
LiveATC on Android

Windows Phone
Windows 8/10

LiveATC Mobile
(Mobile browser)

ATC Audio Archives
Interesting Recordings

LiveATC Forums


Home Page
About LiveATC.net
Make a Donation
Terms of Use
Privacy Policy

Canadian Air Freqs

AIRMETs/SIGMETs

FAA Airport Status
Nat'l Airspace Status
Arrival Demand Charts


Server Software By:
Icecast.org
Liquidsoap